Terug naar catalogus

STARLINK-35625

ActiefCommunicatieVLEO
NORAD 66140·PAYLOAD·🇺🇸 United States

Gelanceerd Oct 22, 2025 vanaf Vandenberg Space Force Base

Loading…

Volgende Passages (komende 24 uur)

TLE

VersSource: CelesTrak SupGP

Epoch: Sep 14, 2026, 15:23 UTC

1 66140C 25237AC  26257.64145833 -.00024188  00000+0 -71488-3 0  2574
2 66140  53.1570 238.8938 0001263  86.5898 254.4570 15.34392010    13

Volg STARLINK-35625 in realtime met AllMySat

Download on the App Store